Terug naar catalogus

STARLINK-5409

ActiefCommunicatieVLEO
NORAD 54859·PAYLOAD·🇺🇸 United States

Gelanceerd Dec 28, 2022 vanaf Cape Canaveral Space Force Station

Loading…

Volgende Passages (komende 24 uur)

TLE

VersSource: CelesTrak SupGP

Epoch: Sep 14, 2026, 21:31 UTC

1 54859C 22177AR  26257.89701389 -.00017312  00000+0 -62717-3 0  2575
2 54859  42.9990 133.1473 0001217 244.7368 206.2667 15.27580262    11

Volg STARLINK-5409 in realtime met AllMySat

Download on the App Store